AEHF-6 (USA 298)

Last updated on Sun Jun 21 2026 00:03:08 GMT+0000 (Coordinated Universal Time)

1 45465U 20022B 26171.41897235 -.00000303 00000+0 00000+0 0 9991 2 45465 2.5402 301.2133 0042999 17.1396 238.8749 1.00270451 23042
UTC large
Height (km)
Speed (km/s)
/
Latitude / Longitude
Inclination (degrees)
Orbital Period (minutes)
Azimuth
Elevation
Range (km)
Doppler Factor

Next 0 passes for location: London (51.5072 / 0.1276)

No passes found over London.
AEHF-6 (USA 298)